{"data":{"norad_id":55811,"intl_designator":"2023-029R","name":"ONEWEB-0648","alt_names":[],"object_type":"PAYLOAD","status":"ACTIVE","operator":null,"country":"UK","launch_date":"2023-03-09","launch_site_code":"AFETR","launch_vehicle":null,"mission":null,"orbit_class":"UNKNOWN","rcs_meters":null,"size_class":null,"mass_kg":null,"dimensions":null,"purposes":["comms"],"wikipedia_slug":null,"has_3d_model":false,"image_url":null,"decayed_at":null,"tle_current":{"epoch":"2026-09-20T00:44:18.924576Z","epoch_age_seconds":58843,"freshness":"FRESH","line1":"1 55811U 23029R   26263.03077459  .00000076  00000+0  16959-3 0  9995","line2":"2 55811  87.8899 270.7874 0002116  65.6856 294.4494 13.14502773171853","mean_motion":13.14502773,"eccentricity":0.0002116,"inclination_deg":87.8899,"raan_deg":270.7874,"arg_perigee_deg":65.6856,"mean_anomaly_deg":294.4494,"bstar":0.00016959,"rev_number":17185,"period_min":109.54712531443,"perigee_km":1204.1856994434,"apogee_km":1207.3952175438,"semimajor_km":7583.9274584936,"source":"CELESTRAK","updated_at":"2026-09-20T09:00:44.762049Z"}}}